Terminal Aerodrome Forecast
Issued by NWS Pueblo, CO

Home | Current Version | Previous Version | Text Only | Print | Product List | Glossary On
Versions: 1 2 3 4 5 6 7 8 9 10 11 12 13 14 15 16 17 18 19 20 21 22 23 24 25 26 27 28 29 30 31 32 33 34 35
000
FTUS45 KPUB 302341
TAFALS
TAF
KALS 302341Z 0100/0124 VRB06KT P6SM BKN070
     FM010200 VRB06KT P6SM SCT090 BKN120
     FM011900 24012KT P6SM FEW080 SCT100 BKN120=

USA.gov is the U.S. government's official web portal to all federal, state and local government web resources and services.